Weather in Apodaca

Mexico     25°46′18″N   100°10′40″W
temp.,
°C
wind,
m/s
gust,
m/s
humid.,
%
clouds,
%
prec.,
mm/h
press.,
hPa
HPBL,
m
17 june, thu
thu1701:00+25ese24673 5.8 1016197
04:00+23ne117640 0.9 1014133
07:00+22wnw11781 0.9 1014171
10:00+26ene12600 0.0 1016807
13:00+31ese343823 0.3 10142318
16:00+33e7730100 0.0 10113136
19:00+26sse465918 0.5 1013397
22:00+25e2360100 0.0 1014231
18 june, fri
fri1801:00+24se226752 0.1 1014147
04:00+23ene11694 0.0 101371
07:00+22wnw01745 0.0 101365
10:00+27nne12555 0.0 1014679
13:00+32ese34301 0.0 10122343
16:00+34e65250 0.0 10092602
19:00+33ese66240 0.0 10092437
22:00+28se36321 0.0 1010314
19 june, sat
sat1901:00+25ese4769100 0.0 1012579
04:00+23e2277100 0.0 1011413
07:00+23ene1177100 0.0 1012374
10:00+26ne1164100 0.0 1012731
13:00+30ese4545100 0.0 10111536
16:00+33e453476 0.0 10082030
19:00+33e7834100 0.0 10072264
22:00+28se4858100 0.0 1009847
20 june, sun
sun2001:00+27ese3467100 0.0 1009472
04:00+25ese2377100 0.0 1008380
07:00+25e117898 0.0 1009226
10:00+26ene0072100 0.0 1010400
13:00+32nne114597 0.0 1008950
16:00+37e2231100 0.0 10051716
19:00+27w456991 1.2 1006166
22:00+30e125698 0.3 1007204
21 june, mon
mon2101:00+29e2360100 0.3 1007138
04:00+28ene116298 0.0 100571
07:00+27e116983 0.0 100645
10:00+30ene115592 0.0 1006422
13:00+37ene2233100 0.0 10051131
16:00+41ese442192 0.0 10022921
19:00+38se4527100 0.1 1002606
22:00+29e3448100 0.5 1005190